GW1987 Weather Reports


Display with metric or nautical units.
time (UTC)temp
F
wind
direction
speed
MPH
gust
MPH
rain 1hr
in
rain 24hr
in
rain mn
in
humidity
%
barometer
mb
20260510073512 49 360 8.0 10.0 0.00 0.00 0.00 45 929.2
20260510073047 50 360 8.0 10.0 0.00 0.00 0.00 45 929.1
20260510072511 49 360 7.0 9.0 0.00 0.00 0.00 46 929.1
20260510072017 49 360 6.0 8.0 0.00 0.00 0.00 45 929.1
20260510071537 50 360 3.0 12.0 0.00 0.00 0.00 44 929.0
20260510071012 50 360 4.0 12.0 0.00 0.00 0.00 45 928.9
20260510070516 51 360 6.0 10.0 0.00 0.00 0.00 44 929.0
20260510070033 51 360 8.0 9.0 0.00 0.00 0.00 43 929.0
20260510065511 51 360 8.0 9.0 0.00 0.00 0.00 44 929.0
20260510065014 50 360 7.0 9.0 0.00 0.00 0.00 45 928.7
20260510064559 50 360 6.0 8.0 0.00 0.00 0.00 45 928.9
20260510064012 50 360 5.0 8.0 0.00 0.00 0.00 44 928.8
20260510063514 50 360 6.0 8.0 0.00 0.00 0.00 45 928.9
20260510063038 49 360 4.0 9.0 0.00 0.00 0.00 44 928.9
20260510062514 49 360 7.0 9.0 0.00 0.00 0.00 44 928.9
20260510062014 50 360 4.0 9.0 0.00 0.00 0.00 42 928.9
20260510061539 50 360 7.0 9.0 0.00 0.00 0.00 43 928.9
20260510061014 50 360 7.0 9.0 0.00 0.00 0.00 42 928.9
20260510060511 51 360 6.0 9.0 0.00 0.00 0.00 41 928.9
20260510060037 52 360 8.0 9.0 0.00 0.00 0.00 40 928.9
20260510055515 52 360 8.0 9.0 0.00 0.00 0.00 41 928.8
20260510055012 51 360 8.0 9.0 0.00 0.00 0.00 42 928.9
20260510054541 51 360 7.0 8.0 0.00 0.00 0.00 40 928.8
20260510054013 52 360 7.0 8.0 0.00 0.00 0.00 38 928.9
20260510053518 53 360 5.0 8.0 0.00 0.00 0.00 39 928.9
20260510053045 53 360 5.0 9.0 0.00 0.00 0.00 39 928.8
20260510052513 52 360 6.0 9.0 0.00 0.00 0.00 40 928.8
20260510052015 52 360 6.0 8.0 0.00 0.00 0.00 39 928.8
20260510051547 52 360 5.0 6.0 0.00 0.00 0.00 39 928.8
20260510051019 52 360 5.0 6.0 0.00 0.00 0.00 38 928.8
20260510050511 53 360 4.0 8.0 0.00 0.00 0.00 37 929.0
20260510050042 53 360 6.0 8.0 0.00 0.00 0.00 37 929.0
20260510045512 53 360 5.0 8.0 0.00 0.00 0.00 37 929.0
20260510045012 53 360 5.0 6.0 0.00 0.00 0.00 37 928.9
20260510044540 54 360 5.0 6.0 0.00 0.00 0.00 35 929.0
20260510044011 55 360 4.0 8.0 0.00 0.00 0.00 35 928.9
20260510043511 55 360 5.0 8.0 0.00 0.00 0.00 35 929.0
20260510043035 55 360 5.0 6.0 0.00 0.00 0.00 35 928.9
20260510042515 55 360 4.0 5.0 0.00 0.00 0.00 34 929.0
20260510042014 56 360 4.0 5.0 0.00 0.00 0.00 34 928.9
20260510041543 56 360 3.0 5.0 0.00 0.00 0.00 34 928.9
20260510041017 56 360 3.0 5.0 0.00 0.00 0.00 34 929.0
20260510040515 56 360 3.0 5.0 0.00 0.00 0.00 34 928.9
20260510040047 55 360 4.0 5.0 0.00 0.00 0.00 34 928.7
20260510035515 56 360 0.0 3.0 0.00 0.00 0.00 34 928.8
20260510035017 55 360 0.0 3.0 0.00 0.00 0.00 36 928.7
20260510034601 54 360 0.0 2.0 0.00 0.00 0.00 36 928.8
20260510034014 54 360 1.0 3.0 0.00 0.00 0.00 35 928.6
20260510033513 54 360 1.0 3.0 0.00 0.00 0.00 35 928.6
20260510033042 54 360 1.0 2.0 0.00 0.00 0.00 34 928.4
20260510032511 54 360 1.0 2.0 0.00 0.00 0.00 34 928.5
20260510032017 54 360 1.0 2.0 0.00 0.00 0.00 33 928.3
20260510031539 55 360 0.0 2.0 0.00 0.00 0.00 33 928.3
20260510031012 55 360 1.0 2.0 0.00 0.00 0.00 31 928.2
20260510030518 56 360 0.0 2.0 0.00 0.00 0.00 30 928.3
20260510030038 57 360 0.0 4.0 0.00 0.00 0.00 29 928.2
20260510025517 59 360 1.0 4.0 0.00 0.00 0.00 27 928.3
20260510025018 61 360 3.0 4.0 0.00 0.00 0.00 27 928.2
20260510024539 62 360 3.0 4.0 0.00 0.00 0.00 28 928.1
20260510024013 62 360 1.0 3.0 0.00 0.00 0.00 27 928.0
20260510023515 63 360 1.0 3.0 0.00 0.00 0.00 27 927.9
20260510023033 63 360 1.0 4.0 0.00 0.00 0.00 27 927.9
20260510022514 63 360 2.0 4.0 0.00 0.00 0.00 26 928.1
20260510022014 64 360 2.0 5.0 0.00 0.00 0.00 26 928.2
20260510021539 64 360 4.0 6.0 0.00 0.00 0.00 25 928.0
20260510021012 65 360 4.0 6.0 0.00 0.00 0.00 25 928.1
20260510020512 65 360 4.0 6.0 0.00 0.00 0.00 25 928.0
20260510020046 65 360 5.0 9.0 0.00 0.00 0.00 25 928.1
20260510015513 65 360 5.0 10.0 0.00 0.00 0.00 25 928.0
20260510015012 66 360 8.0 10.0 0.00 0.00 0.00 25 928.2
20260510014543 65 360 8.0 12.0 0.00 0.00 0.00 25 928.1
20260510014012 66 360 9.0 12.0 0.00 0.00 0.00 25 928.1
20260510013514 66 360 10.0 12.0 0.00 0.00 0.00 24 928.0
20260510013046 66 360 10.0 12.0 0.00 0.00 0.00 24 927.8
20260510012515 66 360 9.0 13.0 0.00 0.00 0.00 25 928.0
20260510012013 66 360 9.0 15.0 0.00 0.00 0.00 24 927.9
20260510011535 66 360 9.0 15.0 0.00 0.00 0.00 24 927.7
20260510011014 67 360 9.0 14.0 0.00 0.00 0.00 23 927.9
20260510010516 67 360 11.0 16.0 0.00 0.00 0.00 24 927.8
20260510010047 67 360 11.0 16.0 0.00 0.00 0.00 24 927.9
20260510005516 67 360 10.0 18.0 0.00 0.00 0.00 24 927.8
20260510005015 67 360 11.0 17.0 0.00 0.00 0.00 23 927.9
20260510004536 67 360 9.0 15.0 0.00 0.00 0.00 23 927.9
20260510004015 67 360 10.0 16.0 0.00 0.00 0.00 23 927.9
20260510003514 67 360 12.0 16.0 0.00 0.00 0.00 23 927.9
20260510003046 66 360 7.0 13.0 0.00 0.00 0.00 24 928.0
20260510002513 66 360 9.0 13.0 0.00 0.00 0.00 24 928.0
20260510002012 66 360 8.0 12.0 0.00 0.00 0.00 24 928.0
20260510001539 67 360 7.0 12.0 0.00 0.00 0.00 24 927.9
20260510001012 67 360 3.0 13.0 0.00 0.00 0.00 24 928.1
20260510000513 67 360 9.0 17.0 0.00 0.00 0.00 24 928.0
20260510000040 67 360 9.0 13.0 0.00 0.00 0.00 24 928.1
20260509235514 66 360 3.0 15.0 0.00 0.00 0.00 24 927.9
20260509235015 66 360 1.0 9.0 0.00 0.00 0.00 25 928.0
20260509234538 67 360 4.0 12.0 0.00 0.00 0.00 24 928.2
20260509234014 67 360 7.0 14.0 0.00 0.00 0.00 24 928.0
20260509233514 67 360 9.0 16.0 0.00 0.00 0.00 23 928.2
20260509233043 67 360 10.0 16.0 0.00 0.00 0.00 24 928.0
20260509232515 66 360 7.0 14.0 0.00 0.00 0.00 25 928.1
20260509232013 66 360 5.0 11.0 0.00 0.00 0.00 25 928.0
20260509231542 66 360 3.0 13.0 0.00 0.00 0.00 25 928.1
20260509231014 66 360 5.0 13.0 0.00 0.00 0.00 25 928.0
20260509230514 66 360 7.0 11.0 0.00 0.00 0.00 24 928.1
20260509230057 66 360 7.0 16.0 0.00 0.00 0.00 25 928.1
20260509225515 66 360 10.0 16.0 0.00 0.00 0.00 24 928.0
20260509225014 66 360 6.0 15.0 0.00 0.00 0.00 25 928.0
20260509224540 66 360 10.0 15.0 0.00 0.00 0.00 25 928.0
20260509224015 65 360 5.0 14.0 0.00 0.00 0.00 26 928.0
20260509223516 65 360 8.0 15.0 0.00 0.00 0.00 26 928.0
20260509223038 65 360 8.0 16.0 0.00 0.00 0.00 26 928.0
20260509222517 66 360 13.0 17.0 0.00 0.00 0.00 25 928.0
20260509222015 66 360 14.0 18.0 0.00 0.00 0.00 25 928.0
20260509221538 66 360 13.0 18.0 0.00 0.00 0.00 25 928.2
20260509221012 66 360 10.0 13.0 0.00 0.00 0.00 25 928.2
20260509220515 66 360 3.0 11.0 0.00 0.00 0.00 25 928.2
20260509220042 66 360 2.0 15.0 0.00 0.00 0.00 25 928.3
20260509215518 66 360 10.0 15.0 0.00 0.00 0.00 24 928.5
20260509215014 66 360 4.0 14.0 0.00 0.00 0.00 24 928.2
20260509214558 67 360 9.0 14.0 0.00 0.00 0.00 24 928.3
20260509214018 67 360 9.0 14.0 0.00 0.00 0.00 24 928.4
20260509213513 66 360 9.0 14.0 0.00 0.00 0.00 24 928.3
20260509213033 66 360 4.0 11.0 0.00 0.00 0.00 25 928.3
20260509212516 65 360 5.0 11.0 0.00 0.00 0.00 26 928.3
20260509212014 65 360 4.0 16.0 0.00 0.00 0.00 27 928.2
20260509211539 65 360 6.0 16.0 0.00 0.00 0.00 26 928.3
20260509211013 65 360 5.0 11.0 0.00 0.00 0.00 27 928.4
20260509210515 65 360 4.0 14.0 0.00 0.00 0.00 27 928.3
20260509210048 64 360 6.0 17.0 0.00 0.00 0.00 27 928.2
20260509205513 64 360 8.0 17.0 0.00 0.00 0.00 28 928.3
20260509205013 64 360 9.0 14.0 0.00 0.00 0.00 27 928.3
20260509204537 64 360 6.0 11.0 0.00 0.00 0.00 28 928.4
20260509204014 64 360 2.0 13.0 0.00 0.00 0.00 29 928.4
20260509203516 64 360 4.0 14.0 0.00 0.00 0.00 28 928.3
20260509203043 64 360 7.0 13.0 0.00 0.00 0.00 28 928.4
20260509202518 64 360 8.0 14.0 0.00 0.00 0.00 28 928.4
20260509202015 64 360 9.0 14.0 0.00 0.00 0.00 28 928.4
20260509201538 64 360 7.0 13.0 0.00 0.00 0.00 29 928.4
20260509201013 64 360 4.0 13.0 0.00 0.00 0.00 30 928.3
20260509200516 64 360 3.0 13.0 0.00 0.00 0.00 30 928.3
20260509200056 64 360 5.0 10.0 0.00 0.00 0.00 30 928.4
20260509195514 64 360 1.0 10.0 0.00 0.00 0.00 30 928.5
20260509195013 63 360 5.0 10.0 0.00 0.00 0.00 30 928.5
20260509194548 63 360 2.0 6.0 0.00 0.00 0.00 30 928.5
20260509194013 63 360 3.0 14.0 0.00 0.00 0.00 30 928.4
20260509193520 63 360 7.0 17.0 0.00 0.00 0.00 32 928.2
20260509193040 63 360 11.0 17.0 0.00 0.00 0.00 30 928.2
20260509192514 63 360 4.0 16.0 0.00 0.00 0.00 31 928.4
20260509192016 63 360 6.0 15.0 0.00 0.00 0.00 32 928.4
20260509191538 62 360 1.0 15.0 0.00 0.00 0.00 33 928.5
20260509191019 62 360 9.0 18.0 0.00 0.00 0.00 32 928.5
20260509190514 62 360 10.0 18.0 0.00 0.00 0.00 32 928.6
20260509190048 62 360 5.0 13.0 0.00 0.00 0.00 32 928.3
20260509185514 62 360 10.0 13.0 0.00 0.00 0.00 33 928.4
20260509185018 61 360 4.0 10.0 0.00 0.00 0.00 33 928.6
20260509184538 61 360 5.0 11.0 0.00 0.00 0.00 33 928.6
20260509184014 62 360 6.0 9.0 0.00 0.00 0.00 33 928.7
20260509183513 61 360 6.0 9.0 0.00 0.00 0.00 33 928.7
20260509183100 61 360 1.0 9.0 0.00 0.00 0.00 34 928.7
20260509182517 61 360 4.0 10.0 0.00 0.00 0.00 34 928.7
20260509182020 60 360 4.0 10.0 0.00 0.00 0.00 34 928.7
20260509181536 60 360 2.0 8.0 0.00 0.00 0.00 34 928.6
20260509181016 60 360 3.0 8.0 0.00 0.00 0.00 34 928.5
20260509180521 60 360 2.0 9.0 0.00 0.00 0.00 35 928.5
20260509180042 60 360 5.0 9.0 0.00 0.00 0.00 34 928.5
20260509175516 60 360 3.0 6.0 0.00 0.00 0.00 35 928.5
20260509175014 60 360 1.0 8.0 0.00 0.00 0.00 35 928.6
20260509174548 60 360 1.0 6.0 0.00 0.00 0.00 35 928.6
20260509174019 59 360 0.0 6.0 0.00 0.00 0.00 35 928.6
20260509173512 59 360 4.0 6.0 0.00 0.00 0.00 35 928.3
20260509173042 59 360 3.0 6.0 0.00 0.00 0.00 35 928.4
20260509172517 59 360 4.0 6.0 0.00 0.00 0.00 35 928.3
20260509172016 59 360 1.0 4.0 0.00 0.00 0.00 36 928.2
20260509171544 59 360 2.0 4.0 0.00 0.00 0.00 36 928.2
20260509171016 59 360 0.0 5.0 0.00 0.00 0.00 37 928.3
20260509170515 59 360 2.0 5.0 0.00 0.00 0.00 36 928.2
20260509170046 59 360 2.0 6.0 0.00 0.00 0.00 36 928.2
20260509165516 59 360 5.0 8.0 0.00 0.00 0.00 36 928.3
20260509165015 59 360 3.0 8.0 0.00 0.00 0.00 36 928.2
20260509164536 59 360 2.0 5.0 0.00 0.00 0.00 36 928.2
20260509164015 59 360 0.0 5.0 0.00 0.00 0.00 36 928.1
20260509163513 59 360 0.0 5.0 0.00 0.00 0.00 37 928.1
20260509163046 59 360 3.0 6.0 0.00 0.00 0.00 37 928.1
20260509162520 58 360 2.0 8.0 0.00 0.00 0.00 37 928.2
20260509162015 59 360 5.0 8.0 0.00 0.00 0.00 38 928.1
20260509161547 58 360 0.0 5.0 0.00 0.00 0.00 37 928.2
20260509161015 58 360 2.0 9.0 0.00 0.00 0.00 37 928.1
20260509160518 58 360 2.0 9.0 0.00 0.00 0.00 38 928.1
20260509160050 58 360 1.0 8.0 0.00 0.00 0.00 38 928.0
20260509155517 58 360 3.0 4.0 0.00 0.00 0.00 38 928.0
20260509155015 58 360 2.0 4.0 0.00 0.00 0.00 38 928.0
20260509154549 58 360 2.0 6.0 0.00 0.00 0.00 39 928.0
20260509154017 58 360 3.0 6.0 0.00 0.00 0.00 39 928.0
20260509153518 58 360 1.0 5.0 0.00 0.00 0.00 39 928.0
20260509153052 58 360 3.0 5.0 0.00 0.00 0.00 39 928.0
20260509152518 58 360 2.0 5.0 0.00 0.00 0.00 40 928.0
20260509152015 58 360 0.0 4.0 0.00 0.00 0.00 40 927.7
20260509151541 58 360 1.0 4.0 0.00 0.00 0.00 41 927.9
20260509151021 58 360 1.0 5.0 0.00 0.00 0.00 41 927.8
20260509150520 57 360 1.0 5.0 0.00 0.00 0.00 41 927.7
20260509150049 57 360 2.0 5.0 0.00 0.00 0.00 42 927.7
20260509145520 57 360 2.0 5.0 0.00 0.00 0.00 43 927.5
20260509145017 57 360 3.0 5.0 0.00 0.00 0.00 43 927.6
20260509144547 57 360 3.0 6.0 0.00 0.00 0.00 43 927.7
20260509144020 57 360 3.0 6.0 0.00 0.00 0.00 43 927.6
20260509143518 57 360 4.0 6.0 0.00 0.00 0.00 44 927.6
20260509143055 56 360 3.0 5.0 0.00 0.00 0.00 45 927.3
20260509142515 56 360 3.0 5.0 0.00 0.00 0.00 45 927.3
20260509142017 56 360 3.0 5.0 0.00 0.00 0.00 45 927.2
20260509141543 55 360 2.0 5.0 0.00 0.00 0.00 46 927.3
20260509141013 55 360 3.0 5.0 0.00 0.00 0.00 47 927.1
20260509140517 55 360 1.0 6.0 0.00 0.00 0.00 47 927.3
20260509140056 55 360 3.0 6.0 0.00 0.00 0.00 47 927.2
20260509135515 55 360 3.0 8.0 0.00 0.00 0.00 48 927.1
20260509135017 54 360 4.0 8.0 0.00 0.00 0.00 48 927.2
20260509134539 54 360 3.0 8.0 0.00 0.00 0.00 50 927.2
20260509134016 53 360 4.0 8.0 0.00 0.00 0.00 51 927.2
20260509133516 53 360 5.0 8.0 0.00 0.00 0.00 51 927.1
20260509133045 53 360 4.0 6.0 0.00 0.00 0.00 52 927.2
20260509132516 53 360 4.0 6.0 0.00 0.00 0.00 52 927.0
20260509132018 53 360 3.0 5.0 0.00 0.00 0.00 52 926.9
20260509131536 53 360 2.0 4.0 0.00 0.00 0.00 52 926.9
20260509131017 53 360 2.0 4.0 0.00 0.00 0.00 52 926.8
20260509130715 53 360 2.0 4.0 0.00 0.00 0.00 52 926.8
20260509130028 52 360 2.0 3.0 0.00 0.00 0.00 52 926.7
20260509125519 52 360 0.0 3.0 0.00 0.00 0.00 52 926.7
20260509125009 52 360 1.0 5.0 0.00 0.00 0.00 52 926.6
20260509124530 52 360 2.0 6.0 0.00 0.00 0.00 52 926.6
20260509124012 52 360 3.0 8.0 0.00 0.00 0.00 52 926.5
20260509123513 52 360 4.0 8.0 0.00 0.00 0.00 52 926.6
20260509123028 52 360 4.0 6.0 0.00 0.00 0.00 53 926.5
20260509122512 52 360 2.0 8.0 0.00 0.00 0.00 53 926.5
20260509122012 52 360 3.0 8.0 0.00 0.00 0.00 53 926.3
20260509121529 52 360 3.0 8.0 0.00 0.00 0.00 52 926.2
20260509121012 52 360 4.0 13.0 0.00 0.00 0.00 52 926.3
20260509120517 52 360 8.0 13.0 0.00 0.00 0.00 52 926.2
20260509120033 52 360 5.0 8.0 0.00 0.00 0.00 52 926.2
20260509115511 52 360 3.0 11.0 0.00 0.00 0.00 52 926.1
20260509115010 52 360 7.0 13.0 0.00 0.00 0.00 52 926.2
20260509114533 52 360 9.0 13.0 0.00 0.00 0.00 52 926.1
20260509114012 52 360 9.0 13.0 0.00 0.00 0.00 52 926.0
20260509113513 53 360 9.0 12.0 0.00 0.00 0.00 52 926.0
20260509113028 52 360 8.0 14.0 0.00 0.00 0.00 53 926.1
20260509112510 52 360 12.0 14.0 0.00 0.00 0.00 52 925.9
20260509112011 53 360 10.0 14.0 0.00 0.00 0.00 52 925.7
20260509111530 53 360 10.0 15.0 0.00 0.00 0.00 52 925.9
20260509111012 53 360 11.0 15.0 0.00 0.00 0.00 51 925.8
20260509110512 53 360 8.0 17.0 0.00 0.00 0.00 50 925.7
20260509110031 53 360 11.0 17.0 0.00 0.00 0.00 49 925.8
20260509105509 53 360 9.0 12.0 0.00 0.00 0.00 48 925.8
20260509105011 53 360 6.0 9.0 0.00 0.00 0.00 49 925.7
20260509104530 53 360 6.0 10.0 0.00 0.00 0.00 50 925.8
20260509104011 52 360 8.0 12.0 0.00 0.00 0.00 52 925.7
20260509103511 52 360 10.0 13.0 0.00 0.00 0.00 53 925.6
20260509103029 52 360 10.0 15.0 0.00 0.00 0.00 54 925.6
20260509102513 52 360 11.0 15.0 0.00 0.00 0.00 55 925.5
20260509102011 52 360 10.0 18.0 0.00 0.00 0.00 55 925.5
20260509101536 52 360 11.0 18.0 0.00 0.00 0.00 55 925.5
20260509101015 52 360 13.0 17.0 0.00 0.00 0.00 55 925.4
20260509100510 52 360 12.0 20.0 0.00 0.00 0.00 55 925.4
20260509100037 52 360 14.0 20.0 0.00 0.00 0.00 55 925.2
20260509095515 52 360 14.0 17.0 0.00 0.00 0.00 56 925.0
20260509095011 52 360 10.0 17.0 0.00 0.00 0.00 55 925.0
20260509094533 52 360 12.0 19.0 0.00 0.00 0.00 55 924.9
20260509094011 52 360 15.0 19.0 0.00 0.00 0.00 54 924.7
20260509093514 52 360 14.0 20.0 0.00 0.00 0.00 53 924.8
20260509093040 52 360 13.0 21.0 0.00 0.00 0.00 52 924.7
20260509092511 52 360 16.0 20.0 0.00 0.00 0.00 52 924.6
20260509092017 52 360 14.0 19.0 0.00 0.00 0.00 53 924.7
20260509091534 52 360 14.0 18.0 0.00 0.00 0.00 55 924.6
20260509091014 52 360 14.0 18.0 0.00 0.00 0.00 55 924.5
20260509090514 52 360 13.0 18.0 0.00 0.00 0.00 55 924.7
20260509090047 52 360 15.0 18.0 0.00 0.00 0.00 55 924.5
20260509085514 52 360 14.0 19.0 0.00 0.00 0.00 55 924.6
20260509085015 52 360 14.0 19.0 0.00 0.00 0.00 56 924.5
20260509084533 52 360 14.0 20.0 0.00 0.00 0.00 56 924.5
20260509084016 52 360 15.0 21.0 0.00 0.00 0.00 55 924.5
20260509083513 52 360 16.0 20.0 0.00 0.00 0.00 55 924.5
20260509083035 52 360 12.0 26.0 0.00 0.00 0.00 55 924.5
20260509082514 53 360 21.0 26.0 0.00 0.00 0.00 54 924.4
20260509082011 53 360 14.0 23.0 0.00 0.00 0.00 54 924.3
20260509081534 53 360 18.0 23.0 0.00 0.00 0.00 54 924.5
20260509081014 52 360 17.0 21.0 0.00 0.00 0.00 55 924.4
20260509080515 53 360 17.0 21.0 0.00 0.00 0.00 55 924.4
20260509080034 53 360 15.0 19.0 0.00 0.00 0.00 54 924.4
20260509075515 53 360 14.0 20.0 0.00 0.00 0.00 54 924.5
20260509075013 53 360 14.0 20.0 0.00 0.00 0.00 54 924.4
20260509074534 53 360 16.0 24.0 0.00 0.00 0.00 53 924.2
20260509074013 53 360 18.0 24.0 0.00 0.00 0.00 53 924.2